Regional Weather Roundup
Issued by NWS

Home | Current Version | Previous Version | Text Only | Print | Product List | Glossary On
Versions: 1 2 3 4 5 6 7 8 9 10 11 12 13 14 15 16 17 18 19 20 21 22 23 24 25 26 27
000
ASUS45 KTFX 301510
RWRMT
MONTANA REGIONAL WEATHER ROUNDUP
NATIONAL WEATHER SERVICE GREAT FALLS MT
900 AM MDT THU MAR 30 2017

NOTE: "FAIR" INDICATES FEW OR NO CLOUDS BELOW 12000 FEET WITH NO
SIGNIFICANT WEATHER AND/OR OBSTRUCTIONS TO VISIBILITY.

MTZ001>007-043-301600-
WEST OF THE DIVIDE

CITY           SKY/WX    TMP DP  RH WIND       PRES   REMARKS
KALISPELL      PTSUNNY   39  37  92 CALM      29.77S
MISSOULA       CLOUDY    41  38  89 CALM      29.82R
BUTTE          CLOUDY    38  33  82 NW7       29.77R
MULLAN PASS    PTSUNNY   28  28 100 SW7       29.78R WCI  21
ANACONDA         N/A     37  36  93 NE5       29.77F
DEER LODGE       N/A     39  34  81 N7        29.80S
EUREKA           N/A     36  34  93 CALM      29.78R
HAMILTON         N/A     45  37  76 CALM      29.79S
RONAN            N/A     42  38  86 CALM      29.85R
$$

MTZ008-052>055-301600-
SOUTHWEST MONTANA

CITY           SKY/WX    TMP DP  RH WIND       PRES   REMARKS
BOZEMAN        LGT RAIN  39  37  92 SE9       29.77F
DILLON         CLOUDY    40  36  86 N6        29.75S
W YELLOWSTONE  MIX PCPN  34  32  93 CALM      29.77S
ENNIS          PTSUNNY   36  34  93 SW3       29.82S FOG
THREE FORKS      N/A     43  43 100 CALM      29.79R
$$

MTZ009-010-012-014-046-048-049-054-301600-
EAST SLOPES AND CENTRAL MONTANA

CITY           SKY/WX    TMP DP  RH WIND       PRES   REMARKS
CUT BANK       MOSUNNY   40  32  73 W8        29.73R
GREAT FALLS    CLOUDY    45  34  65 SW8       29.72R
MALMSTROM AFB  CLOUDY    46  35  66 W9        29.73R
HELENA         CLOUDY    47  35  63 W8        29.75S
AUGUSTA          N/A     46  26  45 NW10      29.73R
BOWMANS CRNR     N/A     42  34  73 S7        29.72R
CHOTEAU          N/A     50  27  40 W12       29.74S
FAIRFIELD        N/A     43  30  61 NW6       29.72R
POWER            N/A     39  32  76 NW6       29.71S
RAYNESFORD     PTSUNNY   43  33  68 E5        29.73R
$$

MTZ011-013-016-021-045-047-050-051-301600-
NORTH CENTRAL MONTANA

CITY           SKY/WX    TMP DP  RH WIND       PRES   REMARKS
HAVRE          MOSUNNY   44  37  76 SW13      29.71R
LEWISTOWN      CLOUDY    42  33  70 E5        29.72S
N BAR RANCH    PTSUNNY   45  32  61 W6        29.74S
CHINOOK          N/A     39  36  87 CALM      29.71S
DENTON           N/A     43  35  71 S7        29.68S
GEYSER         PTSUNNY   45  34  65 W10       29.71S
GRASS RANGE    CLOUDY    44  36  72 W3        29.69R
JUDITH GAP     CLOUDY    42  33  70 CALM      29.73R
STANFORD       CLOUDY    44  34  66 CALM      29.72R
WINIFRED       PTSUNNY   45  36  69 N3        29.72R
$$

MTZ017>020-022>027-061-062-301600-
NORTHEAST MONTANA

CITY           SKY/WX    TMP DP  RH WIND       PRES   REMARKS
GLASGOW        CLOUDY    43  33  68 CALM      29.69R
JORDAN           N/A     45  37  73 W5        29.69S
SIDNEY         CLOUDY    49  39  68 CALM      29.69F
WOLF POINT     CLOUDY    48  36  63 E3        29.69S
MALTA          SUNNY     45  36  70 CALM      29.69S
PLENTYWOOD       N/A     48  34  57 E3        29.69F
POPLAR           N/A     48  34  57 SE3       29.69S
$$

MTZ028>42-056>058-301600-
SOUTHCENTRAL AND SOUTHEAST MONTANA

CITY           SKY/WX    TMP DP  RH WIND       PRES   REMARKS
BAKER          CLOUDY    48  39  71 SE9       29.71F
BILLINGS       RAIN      46  43  89 NW5       29.74R
LIVINGSTON       N/A     39  36  89 MISG      29.76S
MILES CITY     CLOUDY    48  36  63 CALM      29.69S
FORSYTH          N/A     48  39  71 CALM      29.68F
HARLOWTON      CLOUDY    45  36  72 W17       29.73R
LAUREL           N/A     45  35  67 NW6       29.75R
$$

REGIONAL REPORTS...DAKOTAS

CITY           SKY/WX    TMP DP  RH WIND       PRES   REMARKS
WILLISTON      CLOUDY    48  37  65 CALM      29.71S
MINOT          CLOUDY    47  36  65 S14       29.75S
DICKINSON      CLOUDY    43  37  79 SE10      29.72S
BEACH          CLOUDY    46  43  87 S10       29.73F
TIOGA          CLOUDY    41  41 100 E6        29.74F
WATFORD CITY   PTSUNNY   45  41  87 SE13      29.71S
BISMARCK       CLOUDY    42  35  76 S13       29.85S
GRAND FORKS    MOSUNNY   45  39  79 S15G22    29.92F
FARGO          SUNNY     43  39  86 SE6       29.93F
BUFFALO SD       N/A     44  39  82 S10       29.67S
RAPID CITY     CLOUDY    39  38  96 SE10      29.76S
$$

REGIONAL REPORTS...WYOMING/IDAHO/WASHINGTON

CITY           SKY/WX    TMP DP  RH WIND       PRES   REMARKS
GILLETTE       CLOUDY    43  37  79 S12       29.72F
SHERIDAN       CLOUDY    43  39  86 S3        29.71F
BUFFALO WY     CLOUDY    49  31  49 NW3       29.72F
CODY           LGT RAIN  46  37  71 CALM      29.72S
YELLOWSTONE LA   N/A     32  32 100 CALM      29.79F
IDAHO FALLS    CLOUDY    44  41  89 SW15      29.76F
SALMON         CLOUDY    41  37  87 N3        29.75F
BOISE          RAIN      38  38 100 NW23G31   29.73S FOG     WCI  27
SPOKANE        PTSUNNY   37  33  85 S6        29.86R
$$

REGIONAL REPORTS...ALBERTA

CITY           SKY/WX    TMP DP  RH WIND       PRES   REMARKS
EDMONTON       CLOUDY    32  30  93 E7        29.77R FOG     WCI  26
CALGARY        PTSUNNY   37  28  70 E8        29.68R WCI  31
LETHBRIDGE     MOSUNNY   46  32  57 W22G28    29.68F
MEDICINE HAT   MOSUNNY   45  34  65 SW9       29.68R
WATERTON GATE    N/A     43  25  49 W13G18      N/A
CARDSTON         N/A     45  28  53 S2          N/A
MILK RIVER       N/A     45  34  65 W18         N/A
$$

REGIONAL REPORTS...SASKATCHEWAN

CITY           SKY/WX    TMP DP  RH WIND       PRES   REMARKS
SWIFT CURRENT  SUNNY     46  32  57 SW7       29.66R
REGINA         PTSUNNY   41  34  75 E8        29.71F
SASKATOON      CLOUDY    34  34 100 NE14G21   29.79R FOG     WCI  24
CYPRESS HILLS    N/A     45  27  49 NW9G17      N/A
VAL MARIE        N/A     43  34  70 W3          N/A
$$




USA.gov is the U.S. government's official web portal to all federal, state and local government web resources and services.